Kezdőlap
METAR-TAF:

METAR-TAF

Repülőterek :

Maple Lake Municipal Airport

Maple Lake, Minnesota, Amerikai Egyesült Államok

földrajzi szélesség: 45-14-10N, földrajzi hosszúság: 093-59-08W, magasság: 313 m

Jelenlegi meteorológiai megfigyelések

A jelentés 26 perccel ezelõtt készült, 02:43 UTC
Déli szél 5 kt
Hőmérséklet -2°C
Páratartalom 69%
Légköri nyomás 1008 hPa
Látótávolság: 16.1 km
Szakadozott felhőzet 3400 lábon
Borult 4600 lábon

METAR: KMGG 270243Z AUTO 19005KT 10SM BKN034 OVC046 M02/M07 A2978 RMK AO2

Idő: 21:09 (03:09 UTC)


TAF: hiányzik

Meteorológiai megfigyelések és előrejelzések több, mint 4000 repülőtéren (METAR és TAF jelentéseket).

A térképen piros és sárga pontok jelzik az elérhető meteorológiai állomásokat.

Mozgassa az egeret a pont fölött, hogy megjelenjen az állomás neve.

Azután kattintson az időjárási megfigyelések és előrejelzések megtekintéséhez.

A térkép megváltoztatása: kattintson a fekete keresztel jelölt zöld gombra ráközelítéshez, a vonallal jelölt zöld gombra távolításhoz, vagy a zöld nyilakra a szomszédos térképek eléréséhez.


METAR-TAF: